Find Starlink 30359

NORAD ID: 57779 Int'l Des: 2023-134 Owner: SPXS Country: US Constellation: starlink operational
LEOCIRCULAR

Current View

Loading 3D Globe...

About Starlink 30359

Description loading...

Upcoming Passes

Passes for default location (London). Set your location on the main map for personalized predictions.

Altitude History

Loading altitude history...

Two-Line Element Set

1 57779U 23134J 26149.93253400 .00002680 00000-0 10683-3 0 9993
2 57779 43.0036 84.4061 0000994 256.6424 103.4317 15.27596124152062
Epoch: May 29, 2026 • Age: 15 hours

Current Status

Altitude 493.3 km
Velocity 7.62 km/s
Sub-Earth Point -37.46°S, 135.89°W
Launch Date Sep 4, 2023
Age 2.7 years
Type internet

Technical Details

Classification Payload
Mass 730.00 kg
Dry Mass 700.00 kg
Total Mass 730.00 kg
Length 0.30 m
Diameter 4.10 m
Span 29.00 m
Shape Box + pan
Manufacturer SPXS
Bus Type Starlink V2M
Phase Status In Orbit
Owner/State SPXS/US

Most Searched